Location: Mount Cross
(36.6390°N, 79.4878°W)
Time: 02:08:01
(UTC+00:00)

Vanguard 2 Rocket - Pass Details

Date: 21 March 2023
Orbit: 554 x 3314 km, 32.9° (Epoch: 08 June)

Event Time Altitude Azimuth Distance (km) Brightness Sun altitude
Rises 03:14:09 0° 259° (W) 4,466 10.8 -42.3°
Reaches altitude 10° 03:16:36 10° 257° (WSW) 3,771 10.3 -42.7°
Enters shadow 03:23:53 57° 240° (WSW) 2,368 8.8 -43.7°
